Weather in Olbia

Italy     40°55′23″N   9°29′36″E
temp.,
°C
wind,
m/s
gust,
m/s
humid.,
%
clouds,
%
prec.,
mm/h
press.,
hPa
HPBL,
m
20 september, mon
mon2023:00+19w51268100 0.0 1015905
02:00+20w7136496 0.0 10151273
05:00+21wnw7136431 0.0 10141439
08:00+22w7125995 0.0 10151555
11:00+24wnw812490 0.0 10161803
14:00+26wnw8124181 0.0 10161969
17:00+24wnw71048100 0.0 10161596
20:00+20w5966100 0.0 1017609
21 september, tue
tue2123:00+18wsw48760 0.0 1018373
02:00+17wsw36814 0.0 1018171
05:00+16wsw37850 0.0 1018152
08:00+17wsw35814 0.0 1019144
11:00+25nnw23474 0.0 10201357
14:00+24ne545211 0.0 10201005
17:00+24ene325616 0.0 10201137
20:00+20ese2277100 0.0 1021157
22 september, wed
wed2223:00+19sse1282100 0.0 1021143
02:00+18se128499 0.0 1021147
05:00+18nw0286100 0.0 1020166
08:00+18sw128177 0.0 1021201
11:00+24ne325448 0.0 10211039
14:00+25ne435098 0.0 10201036
17:00+24ne33535 0.0 1018711
20:00+19se11770 0.0 101862
23 september, thu
thu2323:00+18sw11820 0.0 101828
02:00+17wsw11770 0.0 101823
05:00+16wsw11763 0.0 101827
08:00+18sw11700 0.0 101841
11:00+24ene33500 0.0 1019839
14:00+26e43450 0.0 1018959
17:00+24e44525 0.0 1017607
20:00+20se23730 0.0 1017139
24 september, fri
fri2423:00+18ssw22760 0.0 101766
02:00+18ssw22731 0.0 101735
05:00+18wsw1169100 0.0 101627
08:00+19sw116419 0.0 101635
11:00+27ese2245100 0.0 1016534
14:00+29ese544576 0.0 10151079
17:00+27ese4455100 0.0 1014496
20:00+22wsw1184100 0.0 101525